Flag for Tajikistan Weather past 2 weeks in Dushanbe, Tajikistan

Now
84 °F

Clear.


Feels Like: 83 °F
Forecast: 75 / 101 °F
Wind: 1 mph from North

Location: Dushanbe Airport

Current Time: Jul 3, 2015 at 11:29:11 PM

Latest Report: Jul 3, 2015 at 11:00 PM


Visibility: N/A

Pressure: 29.77 "Hg (27.10 "Hg at 832m altitude)

Humidity: 37%

Dew point: 55 °F

Location of DushanbeLocation

Historic Weather in Dushanbe — Graph

°F

Dushanbe temperature yesterday

Maximum temperature yesterday: 102 °F (at 2:30 PM)
Minimum temperature yesterday: 77 °F (at 5:00 AM)
Average temperature yesterday: 90 °F

Past Weeks' High & Low Weather Summary

 TemperatureHumidityPressure
High104 °F (Jul 3, 2:00 PM)68% (Jun 26, 3:00 AM)29.89 "Hg (Jun 26, 3:00 AM)
Low63 °F (Jun 24, 5:30 AM)11% (Jul 2, 2:30 PM)29.56 "Hg (Jun 22, 4:00 PM)
Average83 °F34%29.71 "Hg
* Reported Jun 18 10:00 PM — Jul 3 10:30 PM, Dushanbe, Weather by CustomWeather, © 2015

Note: Actual official high and low records may vary slightly from our data, if they occured in-between our weather recording intervals... More about our weather records

Advertising

Dushanbe weather history for previous 24 hours

 ConditionsComfort  
Time TempWeatherWind HumidityBarometerVisibility
10:30 PM
Fri, Jul 3
84 °FClear.No wind37%29.77 "HgN/A
10:00 PM84 °FClear.1 mph35%29.77 "HgN/A
9:30 PM88 °FClear.3 mph31%29.74 "HgN/A
9:00 PM86 °FClear.1 mph35%29.74 "HgN/A
8:30 PM90 °FClear.1 mph33%29.74 "HgN/A
8:00 PM93 °FClear.3 mph23%29.71 "HgN/A
7:30 PM97 °FClear.3 mph23%29.71 "HgN/A
7:00 PM99 °FClear.3 mph21%29.71 "HgN/A
6:30 PM100 °FClear.3 mph18%29.71 "HgN/A
6:00 PM102 °FClear.1 mph15%29.71 "HgN/A
5:30 PM104 °FClear.1 mph15%29.71 "HgN/A
5:00 PM104 °FClear.3 mph15%29.71 "HgN/A
4:30 PM104 °FClear.3 mph17%29.71 "HgN/A
4:00 PM104 °FClear.1 mph14%29.74 "HgN/A
3:30 PM102 °FClear.3 mph16%29.74 "HgN/A
3:00 PM104 °FClear.3 mph16%29.74 "HgN/A
2:30 PM104 °FClear.1 mph15%29.74 "HgN/A
2:00 PM104 °FClear.3 mph14%29.77 "HgN/A
1:30 PM102 °FClear.3 mph15%29.77 "HgN/A
1:00 PM102 °FClear.6 mph14%29.77 "HgN/A
12:30 PM102 °FClear.6 mph14%29.77 "HgN/A
12:00 PM100 °FClear.8 mph18%29.80 "HgN/A
11:30 AM100 °FClear.6 mph20%29.80 "HgN/A
10:30 AM99 °FClear.8 mph19%29.80 "HgN/A
10:00 AM95 °FClear.10 mph23%29.80 "HgN/A
9:30 AM95 °FClear.10 mph23%29.80 "HgN/A
9:00 AM91 °FClear.3 mph30%29.83 "HgN/A
8:30 AM88 °FClear.3 mph35%29.83 "HgN/A
7:30 AM84 °FClear.8 mph37%29.83 "HgN/A
7:00 AM82 °FClear.6 mph37%29.83 "HgN/A
6:30 AM79 °FClear.3 mph48%29.80 "HgN/A
6:00 AM75 °FClear.1 mph50%29.80 "HgN/A
5:30 AM73 °FClear.1 mph53%29.80 "HgN/A
5:00 AM73 °FClear.1 mph50%29.80 "HgN/A
4:30 AM73 °FClear.3 mph50%29.80 "HgN/A
4:00 AM73 °FClear.1 mph53%29.77 "HgN/A
3:30 AM77 °FClear.3 mph47%29.77 "HgN/A
3:00 AM77 °FClear.3 mph44%29.80 "HgN/A
2:30 AM77 °FClear.1 mph44%29.77 "HgN/A
2:00 AM77 °FClear.1 mph51%29.77 "HgN/A
1:30 AM77 °FClear.No wind47%29.80 "HgN/A
1:00 AM77 °FClear.1 mph47%29.80 "HgN/A
12:30 AM79 °FClear.3 mph42%29.80 "HgN/A
12:00 AM81 °FClear.3 mph39%29.80 "HgN/A
11:30 PM
Thu, Jul 2
81 °FClear.3 mph42%29.80 "Hg5 mi
11:00 PM84 °FClear.1 mph40%29.80 "HgN/A
Weather by CustomWeather, © 2015

See weather overviewHow to use our weather pages